Regional Weather Roundup
Issued by NWS Newport/Morehead, NC

Current Version | Previous Version | Graphics & Text | Print | Product List | Glossary Off
Versions: 1 2 3 4 5 6 7 8 9 10 11 12 13 14 15 16 17 18 19 20 21 22 23 24 25 26 27 28 29 30 31 32 33 34 35 36 37 38 39 40 41 42 43 44 45 46 47 48 49 50

998
ASUS42 KMHX 141213
RWRMHX
WEATHER ROUNDUP FOR EASTERN NORTH CAROLINA
NATIONAL WEATHER SERVICE NEWPORT/MOREHEAD CITY NC
700 AM EST SUN FEB 14 2016

NOTE: "FAIR" INDICATES FEW OR NO CLOUDS BELOW 12,000 FEET
WITH NO SIGNIFICANT WEATHER AND/OR OBSTRUCTIONS TO VISIBILITY

NCZ015>017-031-032-045>047-102-103-141300-
NORTH COAST

CITY           SKY/WX    TMP DP  RH WIND       PRES   REMARKS
EDENTON        CLEAR     17   3  54 N5        30.56R
ELIZABETH CITY CLEAR     17   0  47 N16       30.55R WCI   2
KITTY HAWK     SUNNY     19   5  55 N8G16     30.51R
MANTEO         CLEAR     19   6  58 N12G17    30.52S WCI   6

$$

NCZ045>047-081-094-103-104-141300-
CENTRAL COAST

CITY           SKY/WX    TMP DP  RH WIND       PRES   REMARKS
FRISCO         CLEAR     22   9  57 N9G24     30.49R
SWANQUARTER      N/A     18 N/A N/A N8G16     30.50R

$$

NCZ095-097-098-100-101-141300-
SOUTHERN COAST

CITY           SKY/WX    TMP DP  RH WIND       PRES   REMARKS
BEAUFORT       CLEAR     20   4  50 N12       30.51R WCI   8
CEDAR ISLAND     N/A     21 N/A N/A N15G36    30.53S WCI   8
JACKSONVILLE   PTCLDY    20   2  45 N12       30.53R WCI   8
PINEY ISLAND   SUNNY    N/A N/A N/A N15G25    30.51R
WILMINGTON     CLEAR     22   4  46 NE9       30.52R


$$

NCZ011>013-027>030-043-044-078>080-089-090>093-098-141300-
COASTAL PLAIN

CITY           SKY/WX    TMP DP  RH WIND       PRES   REMARKS
AHOSKIE        PTCLDY    12   2  62 CALM      30.56R
CLINTON        PTCLDY    20   4  49 N5        30.53R
ELIZABETHTOWN  PTCLDY    21   3  46 CALM      30.51S
GOLDSBORO      PTCLDY    18  -2  41 NE9       30.52R
GREENVILLE     PTCLDY    18   3  53 N6        30.54R
HAVELOCK       CLEAR     20   3  48 N15       30.53R WCI   6
KENANSVILLE    PTCLDY    19   0  43 N7        30.54R
KINSTON        PTCLDY    18   3  53 N7        30.55R
NEW BERN       PTCLDY    19   0  43 N9G20     30.55R
RICHLANDS      PTCLDY    19   0  42 N9        30.52R
ROCKY MOUNT    PTCLDY    14   3  61 N7        30.55R
WASHINGTON     PTCLDY    16   0  48 N6        30.55R
WHITEVILLE     PTCLDY    22   1  39 N5        30.51R

$$

AMZ130-135-150-152-154-156-158-170-250-252-270-ANZ085-086-088-633-658-670-141300-
MARINE OBSERVATIONS

STATION/POSITION TIME  TEMP    WIND        PRES    WAVE   SWELL
                       AIR SEA DIR/SP/G            HT/PER HT/PER
                 (UTC) (F)     (DEG/KT/KT) (MB)    (FT/S) (FT/S)
CHESAPEAKE LIGHT 1200   19     350/ 23/ 27 1034.0
64 E VA BEACH    1150   24 51  340/ 23/ 29 1031.9    8/ 7
DUCK             1100   20     330/ 21/ 24 1032.2
2 E DUCK         1111      41                N/A     5/ 6
OREGON INLET     1100   20 40  320/ 14/ 19 1032.6
13E OREGON INLT  1200      44                N/A     8/ 7
HATTERAS CG      1100   23 39  350/ 24/ 27 1031.9
DIAMOND BUOY     1150   28 72  360/ 23/ 31 1031.8    7/ 8
CAPE LOOKOUT     1200   22     360/ 19/ 25 1032.2
BEAUFORT LAB     1100   23 41   10/ 12/ 18 1031.1
30 SE NEW RVR IN 1108   31 59              1030.7
30 SE NEW RVR IN 1125      59                N/A     5/ 5
27 SE WRIGHTSVLE 1108   32 59   40/ 17/ 25 1030.1
5 SE WRIGHTSVLE  1108   27 50   30/ 19/ 27 1032.4
225 S CAPE HAT   1150   48 67  350/ 17/ 21   N/A     9/10   7/10
41 SE CHARLESTON 1150   41 65   40/ 21/ 27 1029.7    5/ 6   2/ 9

$$




USA.gov is the U.S. government's official web portal to all federal, state and local government web resources and services.